This demonstration page uses our WeatherBlox Daily Observations layout. Learn more.

Left ArrowRight Arrow

Hourly Observations for February 12, 2020

Temp ( °F °C ) Dew Point ( °F °C ) Humidity (%) Winds ( mph kmh ) Pressure ( in mb ) Visibility ( mi km ) Precip ( " mm )
12:56 am 00:56 Clear 29 -1.7 24 -4.4 82 82 SSW 10 17 29.96 1014 10 16 0.00 0.00
1:56 am 01:56 Clear 27 -2.8 23 -5 85 85 SSW 13 20 29.93 1013 10 16 0.00 0.00
2:56 am 02:56 Clear 25 -3.9 22 -5.6 88 88 S 13 20 29.91 1013 10 16 0.00 0.00
3:56 am 03:56 Clear 26 -3.3 22 -5.6 84 84 W 5 7 29.89 1012 10 16 0.00 0.00
4:56 am 04:56 Clear 24 -4.4 21 -6.1 88 88 SSW 8 13 29.86 1011 10 16 0.00 0.00
5:56 am 05:56 Clear 24 -4.4 22 -5.6 91 91 SW 10 17 29.85 1011 10 16 0.00 0.00
6:56 am 06:56 Clear 23 -5 21 -6.1 92 92 SW 9 15 29.84 1011 10 16 0.00 0.00
7:56 am 07:56 Sunny 22 -5.6 20 -6.7 92 92 SSW 8 13 29.86 1011 10 16 0.00 0.00
8:56 am 08:56 Mostly Cloudy 24 -4.4 22 -5.6 91 91 WSW 7 11 29.89 1012 10 16 0.00 0.00
9:56 am 09:56 Mostly Cloudy 30 -1.1 27 -2.8 88 88 NW 6 9 29.87 1011 10 16 0.00 0.00
10:56 am 10:56 Partly Cloudy 34 1.1 26 -3.3 73 73 VRB 3 6 29.88 1012 10 16 0.00 0.00
11:56 am 11:56 Cloudy 37 2.8 26 -3.3 65 65 NNW 6 9 29.88 1012 10 16 0.00 0.00
12:56 pm 12:56 Mostly Cloudy 42 5.6 26 -3.3 53 53 N 16 26 29.88 1012 10 16 0.00 0.00
1:56 pm 13:56 Mostly Cloudy 43 6.1 26 -3.3 51 51 NNW 22 35 29.87 1011 10 16 0.00 0.00
2:44 pm 14:44 Cloudy with Light Wintry Mix 30 -1 27 -3 86 86 N 36 57 29.97 1015 10 16 0.00 0.00
2:56 pm 14:56 Cloudy with Light Wintry Mix 28 -2.2 24 -4.4 85 85 N 31 50 29.95 1014 7 11 0.00 0.00
3:06 pm 15:06 Windy with Snow Likely 27 -3 25 -4 93 93 N 32 52 30.02 1016 4 6 0.00 0.00
3:34 pm 15:34 Cloudy 25 -4 21 -6 86 86 N 36 57 30.05 1017 10 16 0.00 0.00
3:53 pm 15:53 Cloudy 25 -4 19 -7 80 80 N 35 56 30.08 1018 10 16 0.00 0.00
3:56 pm 15:56 Cloudy 25 -3.9 19 -7.2 78 78 N 31 50 30.03 1017 10 16 0.00 0.00
4:56 pm 16:56 Mostly Cloudy 23 -5 15 -9.4 72 72 N 30 48 30.09 1019 10 16 0.00 0.00
5:47 pm 17:47 Mostly Sunny 19 -7 12 -11 73 73 N 30 48 30.20 1023 10 16 0.00 0.00
5:56 pm 17:56 Mostly Sunny 20 -6.7 12 -11.1 71 71 N 32 52 30.13 1020 10 16 0.00 0.00
6:56 pm 18:56 Mostly Clear 17 -8.3 10 -12.2 74 74 N 29 46 30.21 1023 10 16 0.00 0.00
7:56 pm 19:56 Clear 13 -10.6 1 -17.2 59 59 N 23 37 30.27 1025 10 16 0.00 0.00
8:56 pm 20:56 Clear 11 -11.7 -2 -18.9 55 55 N 25 41 30.30 1026 10 16 0.00 0.00
9:56 pm 21:56 Clear 8 -13.3 -3 -19.4 60 60 N 20 31 30.32 1027 10 16 0.00 0.00
10:56 pm 22:56 Clear 6 -14.4 -7 -21.7 54 54 N 20 31 30.35 1028 10 16 0.00 0.00
11:56 pm 23:56 Clear 4 -15.6 -8 -22.2 57 57 N 20 31 30.37 1028 10 16 0.00 0.00

Powered by AerisWeather